Location: Quedlinburg
(51.7921°N, 11.1414°E)
Time: 05:55:54
(UTC+02:00)

METEOR M2 - Pass Details

Date: 20 March 2026
Orbit: 817 x 824 km, 98.5° (Epoch: 17 April)

Event Time Altitude Azimuth Distance (km) Brightness Sun altitude
Rises 03:54:59 0° 21° (NNE) 3,374 ? -22.0°
Reaches altitude 10° 03:57:35 10° 30° (NNE) 2,436 ? -21.7°
Maximum altitude 04:02:27 34° 95° (E) 1,342 ? -21.0°
Drops below altitude 10° 04:07:17 10° 159° (SSE) 2,418 ? -20.4°
Sets 04:09:50 0° 169° (S) 3,346 ? -20.0°
